Location: Dehesa de la Cepeda
(40.6574°N, 4.3013°W)
Time: 05:10:19
(UTC+00:00)

A-11 Canister half - Visible Passes

Search period start: 26 July 2021 00:00
Search period end: 05 August 2021 00:00
Orbit: 1527 x 1682 km, 47.3° (Epoch: 25 July)

Date Brightness Start Highest point End Pass type
(mag) Time Alt. Az. Time Alt. Az. Time Alt. Az.
26 Jul 10.1 20:38:49 10° WNW 20:47:01 33° SW 20:55:02 10° S visible
27 Jul 10.1 20:17:02 10° WNW 20:25:25 35° SW 20:33:36 10° SSE visible
28 Jul 10.1 19:55:16 10° WNW 20:03:50 37° SW 20:12:10 10° SSE visible
02 Aug 11.2 20:16:56 10° WSW 20:18:53 11° WSW 20:20:50 10° SW visible
03 Aug 11.2 19:54:11 10° W 19:57:20 12° WSW 20:00:28 10° SW visible
